"Timestamp","TZ","WindDir_Mean (deg)","WindSpd_Mean (km/h)","WindSpd_Min (km/h)","WindSpd_Max (km/h)","Temp_Mean (deg)","RH_Mean (%)","MSLP_Mean (hPa)","Rain_Acc (mm)","Rain_Intensity (mm/h)","Hail_Acc (hits/cm2)","Hail_Intensity (hits/cm2hr)","Solar_Mean (W/m2)"
2018/02/22 00:00:00.015,n,142,4.32,1.44,9,22.3,67.1,1015.32,0,0,0,0,0.046997
2018/02/22 00:01:00.000,n,118,2.88,2.16,3.24,22.3,67.1,1015.32,0,0,0,0,0.048752
2018/02/22 00:02:00.000,n,141,7.56,6.12,8.28,22.3,67.1,1015.32,0,0,0,0,0.047874
2018/02/22 00:03:00.000,n,104,2.88,2.16,3.24,22.3,67.3,1015.22,0,0,0,0,0.049629
2018/02/22 00:04:00.004,n,97,9,7.92,10.08,22.4,67.1,1015.22,0,0,0,0,0.049629
2018/02/22 00:05:00.000,n,63,10.440002,9.72,11.52,22.4,67.2,1015.22,0,0,0,0,0.04528
2018/02/22 00:06:00.000,n,107,8.64,6.48,12.6,22.4,67.2,1015.22,0,0,0,0,0.042686
2018/02/22 00:07:00.011,n,94,6.12,1.44,8.28,22.4,67.6,1015.22,0,0,0,0,0.044403
2018/02/22 00:08:00.008,n,119,7.56,4.68,9.36,22.4,67.7,1015.12,0,0,0,0,0.044403
2018/02/22 00:09:00.005,n,100,20.880002,15.48,25.919998,22.4,67.9,1015.12,0,0,0,0,0.046997
2018/02/22 00:10:00.000,n,133,2.16,1.44,4.68,22.5,67.7,1015.12,0,0,0,0,0.044403
2018/02/22 00:11:00.000,n,147,10.440002,3.6,15.48,22.5,67.7,1015.12,0,0,0,0,0.04528
2018/02/22 00:12:00.000,n,107,11.88,9.36,14.04,22.5,67.6,1015.12,0,0,0,0,0.044403
2018/02/22 00:13:00.000,n,141,12.6,10.8,15.48,22.5,67.6,1015.12,0,0,0,0,0.043526
2018/02/22 00:14:00.000,n,144,11.16,10.08,12.24,22.5,67.6,1015.12,0,0,0,0,0.04528
2018/02/22 00:15:00.006,n,105,7.2,5.76,9.72,22.5,67.6,1015.12,0,0,0,0,0.04528
2018/02/22 00:16:00.003,n,133,4.32,2.88,5.04,22.5,67.7,1015.12,0,0,0,0,0.04528
2018/02/22 00:17:00.001,n,97,3.6,3.24,4.68,22.5,67.7,1015.12,0,0,0,0,0.046997
2018/02/22 00:18:00.015,n,116,9.36,7.92,12.6,22.5,67.9,1015.12,0,0,0,0,0.046997
2018/02/22 00:19:00.000,n,129,10.08,8.64,11.52,22.5,68.1,1015.12,0,0,0,0,0.04612
2018/02/22 00:20:00.000,n,88,6.48,4.32,8.64,22.6,68.3,1015.12,0,0,0,0,0.050468
2018/02/22 00:21:00.004,n,85,11.88,10.440002,14.04,22.6,68.5,1015.02,0,0,0,0,0.04528
2018/02/22 00:22:00.001,n,132,5.4,3.24,6.48,22.6,68.5,1015.02,0,0,0,0,0.04612
2018/02/22 00:23:00.000,n,127,12.96,10.08,14.04,22.6,68.6,1015.02,0,0,0,0,0.042686
2018/02/22 00:24:00.000,n,150,5.4,3.6,9.36,22.6,68.7,1015.02,0,0,0,0,0.051346
2018/02/22 00:25:00.008,n,92,10.440002,9,11.88,22.6,68.9,1015.02,0,0,0,0,0.050468
2018/02/22 00:26:00.005,n,161,8.64,8.28,9.36,22.6,68.9,1015.02,0,0,0,0,0.043526
2018/02/22 00:27:00.002,n,137,7.56,5.04,10.08,22.6,69,1015.02,0,0,0,0,0.04528
2018/02/22 00:28:00.000,n,124,15.84,14.4,17.28,22.6,69.2,1014.92,0,0,0,0,0.047874
2018/02/22 00:29:00.000,n,132,7.56,5.76,9,22.6,69.2,1014.92,0,0,0,0,0.04528
2018/02/22 00:30:00.000,n,129,19.44,12.6,23.4,22.6,69.3,1014.92,0,0,0,0,0.049629
2018/02/22 00:31:00.000,n,93,5.04,2.16,9,22.6,69.4,1014.92,0,0,0,0,0.04612
2018/02/22 00:32:00.006,n,115,7.2,6.84,7.92,22.6,69.5,1014.92,0,0,0,0,0.04612
2018/02/22 00:33:00.003,n,118,21.24,19.08,23.759998,22.6,69.7,1014.92,0,0,0,0,0.046997
2018/02/22 00:34:00.000,n,109,12.24,9.72,15.12,22.6,69.8,1014.92,0,0,0,0,0.044403
2018/02/22 00:35:00.013,n,96,12.24,9.36,15.12,22.6,70,1014.92,0,0,0,0,0.04612
2018/02/22 00:36:00.010,n,88,14.4,12.96,16.2,22.5,70.2,1014.82,0,0,0,0,0.047874
2018/02/22 00:37:00.000,n,140,14.4,10.08,15.48,22.5,70.2,1014.82,0,0,0,0,0.043526
2018/02/22 00:38:00.000,n,104,4.32,1.8,6.12,22.5,70.3,1014.82,0,0,0,0,0.049629
2018/02/22 00:39:00.005,n,98,15.48,14.76,16.56,22.5,70.4,1014.72,0,0,0,0,0.04528
2018/02/22 00:40:00.002,n,87,6.12,3.96,7.92,22.5,70.4,1014.72,0,0,0,0,0.049629
2018/02/22 00:41:00.000,n,70,11.16,8.64,13.68,22.5,70.6,1014.72,0,0,0,0,0.046997
2018/02/22 00:42:00.000,n,160,5.04,3.96,6.12,22.5,70.7,1014.72,0,0,0,0,0.047874
2018/02/22 00:43:00.010,n,101,10.08,8.64,11.88,22.5,70.7,1014.72,0,0,0,0,0.047874
2018/02/22 00:44:00.007,n,106,7.56,6.12,9,22.5,70.8,1014.72,0,0,0,0,0.025253
2018/02/22 00:45:00.016,n,131,6.48,4.68,8.28,22.5,70.9,1014.72,0,0,0,0,0.026131
2018/02/22 00:46:00.000,n,130,13.68,12.96,14.76,22.5,71,1014.62,0,0,0,0,0.029602
2018/02/22 00:47:00.000,n,142,8.64,7.92,9.72,22.5,71.1,1014.62,0,0,0,0,0.031319
2018/02/22 00:48:00.000,n,127,8.28,5.76,10.440002,22.4,71.2,1014.52,0,0,0,0,0.024376
2018/02/22 00:49:00.006,n,124,6.48,4.68,8.28,22.4,71.2,1014.62,0,0,0,0,0.023537
2018/02/22 00:50:00.003,n,144,15.48,12.24,17.64,22.4,71.3,1014.52,0,0,0,0,0.023537
2018/02/22 00:51:00.000,n,150,10.8,7.56,14.04,22.4,71.3,1014.52,0,0,0,0,0.030479
2018/02/22 00:52:00.000,n,132,5.04,4.32,6.84,22.4,71.4,1014.52,0,0,0,0,0.022659
2018/02/22 00:53:00.011,n,101,9.72,6.12,11.88,22.4,71.6,1014.52,0,0,0,0,0.024376
2018/02/22 00:54:00.008,n,173,2.88,2.16,3.6,22.4,71.6,1014.42,0,0,0,0,0.020905
2018/02/22 00:55:00.000,n,76,7.92,4.32,10.8,22.4,71.7,1014.32,0,0,0,0,0.032234
2018/02/22 00:56:00.002,n,128,4.68,2.52,7.2,22.4,71.7,1014.32,0,0,0,0,0.028725
2018/02/22 00:57:00.000,n,128,13.32,10.440002,14.04,22.4,71.8,1014.32,0,0,0,0,0.030479
2018/02/22 00:58:00.000,n,99,9,7.56,9.72,22.4,71.8,1014.32,0,0,0,0,0.030479
2018/02/22 00:59:00.000,n,184,2.16,0.72,3.6,22.4,72,1014.32,0,0,0,0,0.020905
2018/02/22 01:00:00.009,n,157,16.2,14.4,17.64,22.4,72,1014.32,0,0,0,0,0.024376
2018/02/22 01:01:00.006,n,130,10.8,9,12.96,22.4,72.1,1014.32,0,0,0,0,0.021782
2018/02/22 01:02:00.003,n,149,20.519998,14.76,25.919998,22.4,72.2,1014.22,0,0,0,0,0.023537
2018/02/22 01:03:00.001,n,75,8.28,6.48,9.36,22.4,72.2,1014.32,0,0,0,0,0.024376
2018/02/22 01:04:00.000,n,135,16.919998,15.12,18.359998,22.3,72.3,1014.32,0,0,0,0,0.022659
2018/02/22 01:05:00.000,n,138,19.8,18.359998,21.24,22.3,72.4,1014.32,0,0,0,0,0.021782
2018/02/22 01:06:00.000,n,81,16.2,13.68,20.519998,22.3,72.1,1014.32,0,0,0,0,0.021782
2018/02/22 01:07:00.005,n,141,15.48,14.4,16.56,22.3,72.2,1014.32,0,0,0,0,0.028725
2018/02/22 01:08:00.002,n,143,11.88,11.52,12.6,22.3,72.2,1014.32,0,0,0,0,0.025253
2018/02/22 01:09:00.000,n,123,9.72,2.88,12.24,22.3,72.1,1014.32,0,0,0,0,0.020905
2018/02/22 01:10:00.012,n,144,18,17.28,18.72,22.3,72.3,1014.42,0,0,0,0,0.021782
2018/02/22 01:11:00.009,n,54,10.440002,8.64,13.32,22.3,72.1,1014.42,0,0,0,0,0.01915
2018/02/22 01:12:00.006,n,146,19.08,17.28,21.96,22.3,72.1,1014.42,0,0,0,0,0.021782
2018/02/22 01:13:00.000,n,110,5.4,3.96,6.48,22.3,72.1,1014.42,0,0,0,0,0.022659
2018/02/22 01:14:00.001,n,114,10.08,7.92,12.6,22.3,72.2,1014.42,0,0,0,0,0.016556
2018/02/22 01:15:00.000,n,107,9.72,6.12,10.8,22.3,72.2,1014.32,0,0,0,0,0.01915
2018/02/22 01:16:00.000,n,141,12.96,9,15.84,22.3,72.3,1014.32,0,0,0,0,0.018311
2018/02/22 01:17:00.000,n,125,15.84,14.04,17.28,22.3,72.2,1014.32,0,0,0,0,0.017433
2018/02/22 01:18:00.008,n,73,5.4,5.04,6.48,22.3,72.2,1014.32,0,0,0,0,0.01915
2018/02/22 01:19:00.007,n,130,11.52,9.72,12.6,22.3,72.2,1014.32,0,0,0,0,0.032196
2018/02/22 01:20:00.002,n,119,2.52,1.44,3.24,22.3,72.3,1014.32,0,0,0,0,0.029602
2018/02/22 01:21:00.015,n,207,2.52,0.72,4.32,22.3,72.3,1014.32,0,0,0,0,0.031319
2018/02/22 01:22:00.000,n,139,13.32,12.24,14.04,22.3,72.1,1014.22,0,0,0,0,0.032196
2018/02/22 01:23:00.000,n,110,8.64,7.92,9.36,22.3,72.2,1014.32,0,0,0,0,0.031319
2018/02/22 01:24:00.000,n,190,3.24,1.8,5.4,22.3,72.1,1014.22,0,0,0,0,0.029602
2018/02/22 01:25:00.004,n,139,5.76,4.68,6.48,22.3,72.2,1014.32,0,0,0,0,0.028687
2018/02/22 01:26:00.001,n,164,19.08,17.64,21.24,22.3,72.1,1014.32,0,0,0,0,0.031319
2018/02/22 01:27:00.000,n,126,15.84,7.56,26.64,22.3,72,1014.32,0,0,0,0,0.031319
2018/02/22 01:28:00.011,n,143,11.88,10.8,13.32,22.3,71.9,1014.32,0,0,0,0,0.027809
2018/02/22 01:29:00.008,n,152,15.12,12.6,22.68,22.3,71.4,1014.32,0,0,0,0,0.03479
2018/02/22 01:30:00.006,n,72,8.28,5.4,10.8,22.3,71.4,1014.32,0,0,0,0,0.029602
2018/02/22 01:31:00.000,n,143,16.919998,13.68,24.119998,22.4,71.1,1014.22,0,0,0,0,0.032196
2018/02/22 01:32:00.000,n,102,5.76,2.52,8.64,22.4,71,1014.32,0,0,0,0,0.028687
2018/02/22 01:33:00.000,n,162,11.52,6.12,15.48,22.4,71,1014.32,0,0,0,0,0.030441
2018/02/22 01:34:00.000,n,116,14.04,10.8,17.28,22.4,70.9,1014.32,0,0,0,0,0.027809
2018/02/22 01:35:00.008,n,121,14.76,14.04,16.2,22.4,70.8,1014.32,0,0,0,0,0.02697
2018/02/22 01:36:00.005,n,131,15.48,14.04,16.919998,22.4,70.8,1014.22,0,0,0,0,0.031319
2018/02/22 01:37:00.002,n,121,14.76,12.24,15.84,22.4,70.8,1014.32,0,0,0,0,0.026093
2018/02/22 01:38:00.000,n,132,14.4,9.72,21.24,22.4,70.9,1014.22,0,0,0,0,0.028687
2018/02/22 01:39:00.012,n,125,19.8,18,21.599998,22.4,71,1014.22,0,0,0,0,0.027809
2018/02/22 01:40:00.000,n,135,10.8,9,13.32,22.4,71,1014.12,0,0,0,0,0.02697
2018/02/22 01:41:00.000,n,106,8.28,5.4,12.6,22.4,71.2,1014.22,0,0,0,0,0.027809
2018/02/22 01:42:00.003,n,139,19.8,18.359998,21.96,22.4,71.4,1014.12,0,0,0,0,0.033035
2018/02/22 01:43:00.000,n,135,6.12,2.88,9.36,22.4,71.5,1014.12,0,0,0,0,0.029602
2018/02/22 01:44:00.000,n,142,27,24.119998,29.519998,22.4,72,1014.12,0,0,0,0,0.035667
2018/02/22 01:45:00.000,n,171,3.24,0.72,8.28,22.3,72.2,1014.12,0,0,0,0,0.033913
2018/02/22 01:46:00.009,n,127,9.72,7.2,12.6,22.3,72.5,1014.12,0,0,0,0,0.031319
2018/02/22 01:47:00.006,n,98,6.84,5.4,8.28,22.3,72.6,1014.02,0,0,0,0,0.028687
2018/02/22 01:48:00.003,n,120,12.96,7.92,19.44,22.3,72.8,1014.02,0,0,0,0,0.03479
2018/02/22 01:49:00.001,n,107,10.440002,9.36,11.88,22.3,72.9,1014.02,0,0,0,0,0.030441
2018/02/22 01:50:00.000,n,124,12.96,10.440002,14.4,22.2,73.1,1014.02,0,0,0,0,0.035667
2018/02/22 01:51:00.000,n,116,8.64,7.92,9.72,22.2,73.2,1014.02,0,0,0,0,0.029602
2018/02/22 01:52:00.000,n,149,3.6,1.8,5.04,22.2,73.3,1014.02,0,0,0,0,0.032196
2018/02/22 01:53:00.005,n,83,7.2,5.76,8.64,22.2,73.4,1014.02,0,0,0,0,0.035667
2018/02/22 01:54:00.003,n,161,10.08,7.2,12.24,22.2,73.6,1014.02,0,0,0,0,0.032196
2018/02/22 01:55:00.001,n,92,7.92,7.2,9,22.2,73.5,1014.02,0,0,0,0,0.033913
2018/02/22 01:56:00.013,n,153,7.56,5.76,9.36,22.2,73.6,1014.02,0,0,0,0,0.03479
2018/02/22 01:57:00.010,n,107,2.52,0.72,3.6,22.2,73.7,1014.02,0,0,0,0,0.027809
2018/02/22 01:58:00.000,n,126,13.32,12.24,15.12,22.2,73.8,1014.02,0,0,0,0,0.027809
2018/02/22 01:59:00.000,n,153,7.92,6.84,9,22.2,73.9,1014.02,0,0,0,0,0.033035
2018/02/22 02:00:00.001,n,158,2.88,2.16,3.24,22.2,73.9,1014.02,0,0,0,0,0.031319
2018/02/22 02:01:00.000,n,129,14.4,12.6,18,22.2,73.9,1014.02,0,0,0,0,0.033913
2018/02/22 02:02:00.000,n,162,4.68,0.72,13.68,22.2,73.9,1014.02,0,0,0,0,0.03479
2018/02/22 02:03:00.008,n,115,11.16,8.64,12.96,22.1,73.9,1014.02,0,0,0,0,0.033913
2018/02/22 02:04:00.005,n,134,14.76,11.52,16.919998,22.1,74,1014.02,0,0,0,0,0.027809
2018/02/22 02:05:00.003,n,134,19.44,17.64,20.519998,22.2,74.1,1014.02,0,0,0,0,0.028687
2018/02/22 02:06:00.001,n,108,6.48,5.04,8.28,22.2,74.1,1014.12,0,0,0,0,0.031319
2018/02/22 02:07:00.000,n,156,11.16,10.440002,12.24,22.2,74.2,1014.02,0,0,0,0,0.035667
2018/02/22 02:08:00.000,n,145,5.4,4.32,7.2,22.2,74.1,1014.02,0,0,0,0,0.037384
2018/02/22 02:09:00.000,n,109,12.24,11.88,12.6,22.2,74.1,1014.02,0,0,0,0,0.027809
2018/02/22 02:10:00.005,n,149,15.48,13.32,16.56,22.2,74.1,1013.92,0,0,0,0,0.02697
2018/02/22 02:11:00.004,n,129,11.16,10.8,11.88,22.2,74.2,1014.02,0,0,0,0,0.029602
2018/02/22 02:12:00.002,n,145,11.52,9.36,14.4,22.2,74.1,1014.02,0,0,0,0,0.030441
2018/02/22 02:13:00.000,n,156,9.36,7.56,10.8,22.1,74.2,1014.02,0,0,0,0,0.028687
2018/02/22 02:14:00.013,n,124,9.72,0.36,12.96,22.1,74.2,1013.92,0,0,0,0,0.029602
2018/02/22 02:15:00.010,n,157,10.8,10.440002,11.52,22.1,74.2,1013.92,0,0,0,0,0.027809
2018/02/22 02:16:00.000,n,122,7.2,3.6,10.08,22.1,74.4,1013.92,0,0,0,0,0.029602
2018/02/22 02:17:00.003,n,165,8.64,6.12,10.8,22.1,74.5,1013.92,0,0,0,0,0.032196
2018/02/22 02:18:00.000,n,150,8.28,7.2,9.36,22.1,74.8,1013.92,0,0,0,0,0.031319
2018/02/22 02:19:00.000,n,146,12.6,11.52,14.4,22.1,75.1,1013.92,0,0,0,0,0.028687
2018/02/22 02:20:00.000,n,144,7.56,1.08,11.16,22,75.4,1013.92,0,0,0,0,0.029602
2018/02/22 02:21:00.010,n,160,7.92,5.04,8.64,21.9,75.7,1013.92,0,0,0,0,0.02697
2018/02/22 02:22:00.006,n,125,6.84,3.24,8.28,21.9,75.9,1013.82,0,0,0,0,0.03479
2018/02/22 02:23:00.003,n,148,10.08,9.36,10.8,21.9,76,1013.82,0,0,0,0,0.037384
2018/02/22 02:24:00.000,n,160,3.6,1.44,5.76,21.9,76.1,1013.82,0,0,0,0,0.036545
2018/02/22 02:25:00.000,n,158,12.24,10.440002,14.04,21.9,76.2,1013.82,0,0,0,0,0.02697
2018/02/22 02:26:00.000,n,113,5.76,3.24,7.92,21.9,76.3,1013.82,0,0,0,0,0.033035
2018/02/22 02:27:00.000,n,176,5.04,3.24,7.56,21.9,76.4,1013.82,0,0,0,0,0.032196
2018/02/22 02:28:00.006,n,164,7.2,4.32,9,21.9,76.4,1013.82,0,0,0,0,0.031319
2018/02/22 02:29:00.004,n,182,6.48,3.6,8.28,21.9,76.5,1013.82,0,0,0,0,0.035667
2018/02/22 02:30:00.000,n,201,5.4,3.24,7.92,21.9,76.5,1013.92,0,0,0,0,0.027809
2018/02/22 02:31:00.000,n,162,6.84,4.68,10.08,21.9,76.5,1013.92,0,0,0,0,0.033913
2018/02/22 02:32:00.011,n,147,21.96,20.16,28.08,21.9,76.6,1013.82,0,0,0,0,0.029602
2018/02/22 02:33:00.008,n,151,12.24,10.8,14.4,21.9,76.8,1013.92,0,0,0,0,0.02697
2018/02/22 02:34:00.000,n,150,7.2,6.84,7.92,21.8,76.8,1014.02,0,0,0,0,0.026093
2018/02/22 02:35:00.001,n,185,11.88,10.8,12.6,21.8,76.9,1014.02,0,0,0,0,0.024376
2018/02/22 02:36:00.000,n,142,9.72,8.64,11.52,21.8,77,1014.02,0,0,0,0,0.031319
2018/02/22 02:37:00.000,n,160,7.56,5.04,9,21.8,77.2,1014.02,0,0,0,0,0.028687
2018/02/22 02:38:00.000,n,173,12.6,10.440002,13.68,21.8,77,1014.02,0,0,0,0,0.033913
2018/02/22 02:39:00.008,n,167,10.8,9,11.52,21.8,77.3,1014.02,0,0,0,0,0.027809
2018/02/22 02:40:00.005,n,173,15.84,14.76,16.919998,21.8,77.5,1014.02,0,0,0,0,0.027809
2018/02/22 02:41:00.002,n,177,11.52,9.72,12.96,21.8,77.8,1014.02,0,0,0,0,0.028687
2018/02/22 02:42:00.016,n,178,10.08,9,11.16,21.8,78,1014.12,0,0,0,0,0.028687
2018/02/22 02:43:00.000,n,209,12.24,9,14.4,21.8,78.2,1014.02,0,0,0,0,0.032196
2018/02/22 02:44:00.000,n,168,11.52,9,13.32,21.8,78.5,1014.12,0,0,0,0,0.028687
2018/02/22 02:45:00.000,n,96,4.68,2.52,7.2,21.7,78.8,1014.12,0,0,0,0,0.028687
2018/02/22 02:46:00.006,n,140,6.84,5.76,9,21.6,79.1,1014.12,0,0,0,0,0.030441
2018/02/22 02:47:00.004,n,139,6.12,1.8,9.36,21.6,79.3,1014.12,0,0,0,0,0.033035
2018/02/22 02:48:00.001,n,142,10.440002,9.36,11.16,21.6,79.6,1014.12,0,0,0,0,0.031319
2018/02/22 02:49:00.000,n,162,12.24,11.16,14.04,21.5,80,1014.12,0,0,0,0,0.026093
2018/02/22 02:50:00.011,n,154,3.24,0.72,7.56,21.5,80.1,1014.12,0,0,0,0,0.02697
2018/02/22 02:51:00.009,n,199,8.28,7.2,9,21.4,80.4,1014.12,0,0,0,0,0.025215
2018/02/22 02:52:00.000,n,194,8.28,7.92,9,21.4,80.5,1014.12,0,0,0,0,0.026093
2018/02/22 02:53:00.002,n,194,12.6,11.16,14.04,21.4,80.7,1014.12,0,0,0,0,0.033913
2018/02/22 02:54:00.000,n,243,6.12,3.96,9,21.4,80.9,1014.12,0,0,0,0,0.033035
2018/02/22 02:55:00.000,n,199,12.6,11.52,14.04,21.4,81.1,1014.12,0,0,0,0,0.027809
2018/02/22 02:56:00.010,n,236,2.52,1.8,4.32,21.4,81.3,1014.02,0,0,0,0,0.027809
2018/02/22 02:57:00.007,n,196,1.08,0.72,1.44,21.3,81.4,1014.02,0,0,0,0,0.024376
2018/02/22 02:58:00.005,n,163,6.84,2.16,11.52,21.3,81.2,1014.12,0,0,0,0,0.026093
2018/02/22 02:59:00.002,n,165,5.04,2.88,7.56,21.3,80.8,1014.02,0,0,0,0,0.028687
2018/02/22 03:00:00.016,n,306,3.96,1.8,4.68,21.2,81.2,1014.02,0,0,0,0,0.026093
2018/02/22 03:01:00.000,n,176,13.32,11.16,15.12,21.1,81.2,1013.92,0,0,0,0,0.025215
2018/02/22 03:02:00.000,n,211,13.68,12.6,14.76,21,81.3,1014.02,0,0,0,0,0.025215
2018/02/22 03:03:00.000,n,167,13.32,11.52,15.12,21,81.9,1013.92,0,0,0,0,0.026093
2018/02/22 03:04:00.000,n,186,2.88,1.8,4.68,20.9,82.2,1013.92,0,0,0,0,0.031319
2018/02/22 03:05:00.006,n,208,6.84,5.04,8.64,20.9,82.5,1013.92,0,0,0,0,0.026093
2018/02/22 03:06:00.003,n,169,9.72,7.2,12.24,20.8,82.6,1013.92,0,0,0,0,0.021744
2018/02/22 03:07:00.000,n,202,9.72,7.92,10.8,20.8,82.5,1013.92,0,0,0,0,0.024376
2018/02/22 03:08:00.014,n,191,9.36,7.92,11.16,20.7,82.6,1013.92,0,0,0,0,0.024376
2018/02/22 03:09:00.011,n,186,11.52,9,12.24,20.7,82.7,1013.92,0,0,0,0,0.024376
2018/02/22 03:10:00.000,n,127,6.84,2.88,9.36,20.7,83,1013.92,0,0,0,0,0.020866
2018/02/22 03:11:00.000,n,233,2.16,0,2.88,20.7,83.1,1013.92,0,0,0,0,0.021744
2018/02/22 03:12:00.004,n,202,12.96,10.08,15.12,20.7,82.9,1013.92,0,0,0,0,0.034828
2018/02/22 03:13:00.000,n,183,13.32,10.8,15.12,20.6,83.1,1013.92,0,0,0,0,0.030479
2018/02/22 03:14:00.000,n,149,11.52,6.48,16.919998,20.6,83.1,1013.92,0,0,0,0,0.033073
2018/02/22 03:15:00.010,n,192,3.24,2.88,5.04,20.6,83.2,1013.92,0,0,0,0,0.029602
2018/02/22 03:16:00.008,n,201,6.84,6.12,7.92,20.6,83.3,1013.92,0,0,0,0,0.030479
2018/02/22 03:17:00.004,n,167,11.52,10.8,12.24,20.5,83.3,1013.92,0,0,0,0,0.033073
2018/02/22 03:18:00.002,n,181,7.92,6.48,11.52,20.5,83.4,1013.92,0,0,0,0,0.026093
2018/02/22 03:19:00.000,n,166,9.36,7.2,10.8,20.5,83.6,1013.92,0,0,0,0,0.028687
2018/02/22 03:20:00.000,n,144,10.08,7.92,13.68,20.5,83.6,1013.92,0,0,0,0,0.026093
2018/02/22 03:21:00.000,n,180,7.2,3.96,10.440002,20.5,83.6,1013.92,0,0,0,0,0.026093
2018/02/22 03:22:00.008,n,117,8.64,7.92,9.72,20.5,83.6,1013.92,0,0,0,0,0.028687
2018/02/22 03:23:00.004,n,164,10.440002,7.2,14.4,20.4,83.7,1014.02,0,0,0,0,0.026093
2018/02/22 03:24:00.001,n,209,12.96,12.24,14.04,20.4,83.7,1014.02,0,0,0,0,0.02697
2018/02/22 03:25:00.000,n,199,13.32,12.24,14.76,20.4,83.7,1014.12,0,0,0,0,0.033073
2018/02/22 03:26:00.012,n,170,8.28,7.56,9,20.4,83.6,1014.12,0,0,0,0,0.022621
2018/02/22 03:27:00.010,n,172,14.04,12.6,15.84,20.4,83.6,1014.12,0,0,0,0,0.025253
2018/02/22 03:28:00.000,n,143,10.440002,3.96,14.76,20.4,83.6,1014.12,0,0,0,0,0.022621
2018/02/22 03:29:00.000,n,157,5.04,2.52,6.12,20.4,83.7,1014.22,0,0,0,0,0.027847
2018/02/22 03:30:00.002,n,146,9,6.84,12.96,20.4,83.7,1014.22,0,0,0,0,0.027847
2018/02/22 03:31:00.000,n,187,15.48,12.24,17.64,20.4,83.6,1014.22,0,0,0,0,0.021744
2018/02/22 03:32:00.000,n,183,5.76,4.32,10.08,20.4,83.6,1014.22,0,0,0,0,0.020027
2018/02/22 03:33:00.011,n,189,6.48,4.68,8.28,20.4,83.6,1014.22,0,0,0,0,0.020905
2018/02/22 03:34:00.008,n,166,5.04,1.8,7.56,20.4,83.5,1014.22,0,0,0,0,0.022621
2018/02/22 03:35:00.007,n,148,13.32,12.24,15.48,20.4,83.4,1014.22,0,0,0,0,0.021744
2018/02/22 03:36:00.004,n,179,8.28,4.32,11.16,20.5,83.4,1014.22,0,0,0,0,0.020027
2018/02/22 03:37:00.000,n,188,10.8,9,14.4,20.5,83.4,1014.32,0,0,0,0,0.020905
2018/02/22 03:38:00.000,n,218,11.16,7.56,16.2,20.5,83.2,1014.22,0,0,0,0,0.022621
2018/02/22 03:39:00.000,n,171,11.52,10.440002,12.24,20.4,83.4,1014.32,0,0,0,0,0.030441
2018/02/22 03:40:00.000,n,186,15.84,10.8,18.359998,20.4,83.6,1014.32,0,0,0,0,0.032196
2018/02/22 03:41:00.007,n,132,3.6,2.16,5.04,20.4,83.9,1014.32,0,0,0,0,0.032196
2018/02/22 03:42:00.005,n,152,5.04,2.16,7.92,20.4,83.9,1014.32,0,0,0,0,0.029602
2018/02/22 03:43:00.001,n,172,8.28,7.2,8.64,20.4,84,1014.32,0,0,0,0,0.030441
2018/02/22 03:44:00.014,n,203,16.919998,12.96,20.519998,20.4,83.9,1014.22,0,0,0,0,0.029602
2018/02/22 03:45:00.011,n,195,10.440002,9.36,11.52,20.4,84,1014.32,0,0,0,0,0.032196
2018/02/22 03:46:00.000,n,160,11.16,10.08,11.88,20.3,84.2,1014.32,0,0,0,0,0.029602
2018/02/22 03:47:00.000,n,156,7.56,6.84,8.64,20.3,84.4,1014.32,0,0,0,0,0.030441
2018/02/22 03:48:00.000,n,123,7.56,1.8,11.16,20.3,84.4,1014.32,0,0,0,0,0.029602
2018/02/22 03:49:00.002,n,168,7.92,4.68,10.440002,20.3,84.3,1014.22,0,0,0,0,0.029602
2018/02/22 03:50:00.001,n,199,11.52,8.64,13.68,20.2,84.4,1014.32,0,0,0,0,0.023499
2018/02/22 03:51:00.000,n,206,9.72,8.28,10.8,20.2,84.5,1014.32,0,0,0,0,0.028725
2018/02/22 03:52:00.011,n,169,3.6,1.8,3.96,20.2,84.6,1014.32,0,0,0,0,0.026093
2018/02/22 03:53:00.008,n,164,3.24,2.52,3.6,20.2,84.7,1014.32,0,0,0,0,0.025215
2018/02/22 03:54:00.005,n,185,17.64,13.68,21.599998,20.2,84.4,1014.32,0,0,0,0,0.024376
2018/02/22 03:55:00.000,n,182,6.48,3.96,7.56,20.2,84.4,1014.32,0,0,0,0,0.030441
2018/02/22 03:56:00.000,n,201,17.64,15.48,20.16,20.2,84.4,1014.32,0,0,0,0,0.024376
2018/02/22 03:57:00.000,n,175,8.28,6.12,10.08,20.1,84.6,1014.32,0,0,0,0,0.026131
2018/02/22 03:58:00.000,n,204,7.2,5.76,7.92,20.1,84.6,1014.32,0,0,0,0,0.035706
2018/02/22 03:59:00.004,n,174,11.88,9.72,14.4,20.1,84.4,1014.32,0,0,0,0,0.035706
2018/02/22 04:00:00.002,n,139,14.76,12.96,16.2,20.1,84.5,1014.32,0,0,0,0,0.033073
2018/02/22 04:01:00.000,n,165,11.52,8.64,13.32,20.1,84.4,1014.32,0,0,0,0,0.033951
2018/02/22 04:02:00.013,n,177,11.88,10.440002,14.04,20.1,84.5,1014.32,0,0,0,0,0.027847
2018/02/22 04:03:00.010,n,178,11.16,10.440002,12.24,20.1,84.5,1014.32,0,0,0,0,0.035706
2018/02/22 04:04:00.000,n,115,5.76,5.04,6.84,20.1,84.5,1014.32,0,0,0,0,0.03479
2018/02/22 04:05:00.000,n,199,13.68,11.52,15.84,20.1,84.2,1014.32,0,0,0,0,0.029564
2018/02/22 04:06:00.002,n,146,7.92,6.48,9.72,20.1,84.3,1014.32,0,0,0,0,0.031357
2018/02/22 04:07:00.000,n,116,3.24,1.08,6.12,20.1,84.4,1014.32,0,0,0,0,0.029564
2018/02/22 04:08:00.000,n,171,15.84,14.4,18.359998,20.1,84.2,1014.32,0,0,0,0,0.029564
2018/02/22 04:09:00.010,n,130,18,17.64,18.359998,20.1,84.2,1014.32,0,0,0,0,0.028725
2018/02/22 04:10:00.006,n,150,9.72,7.56,13.68,20.1,84.2,1014.32,0,0,0,0,0.030479
2018/02/22 04:11:00.004,n,212,10.08,7.92,12.24,20.1,84.2,1014.22,0,0,0,0,0.022621
2018/02/22 04:12:00.002,n,178,6.12,5.04,7.56,20.1,84.2,1014.22,0,0,0,0,0.022621
2018/02/22 04:13:00.001,n,132,11.16,10.440002,12.6,20.1,84.1,1014.22,0,0,0,0,0.030479
2018/02/22 04:14:00.000,n,124,7.2,5.04,8.28,20.1,84.2,1014.22,0,0,0,0,0.021782
2018/02/22 04:15:00.000,n,179,16.2,15.12,17.28,20.2,84,1014.22,0,0,0,0,0.023499
2018/02/22 04:16:00.000,n,183,5.04,3.6,7.2,20.2,84,1014.22,0,0,0,0,0.027847
2018/02/22 04:17:00.008,n,130,6.84,4.68,9.72,20.2,84,1014.22,0,0,0,0,0.023499
2018/02/22 04:18:00.005,n,152,6.84,6.12,7.56,20.2,84,1014.12,0,0,0,0,0.026131
2018/02/22 04:19:00.002,n,161,9.36,6.48,11.16,20.2,83.9,1014.12,0,0,0,0,0.023499
2018/02/22 04:20:00.000,n,130,4.68,1.8,7.92,20.2,84,1014.22,0,0,0,0,0.022621
2018/02/22 04:21:00.013,n,166,3.96,3.24,4.68,20.2,84.1,1014.22,0,0,0,0,0.023499
2018/02/22 04:22:00.000,n,171,13.32,11.16,15.48,20.2,83.9,1014.12,0,0,0,0,0.022621
2018/02/22 04:23:00.000,n,181,6.48,5.4,7.2,20.2,84.1,1014.12,0,0,0,0,0.026131
2018/02/22 04:24:00.000,n,169,8.64,7.92,9.36,20.2,84,1014.12,0,0,0,0,0.026131
2018/02/22 04:25:00.003,n,172,6.84,5.04,9,20.2,84.1,1014.12,0,0,0,0,0.017395
2018/02/22 04:26:00.000,n,184,7.56,6.48,9,20.2,83.9,1014.22,0,0,0,0,0.020905
2018/02/22 04:27:00.000,n,131,7.2,5.4,9.72,20.2,83.8,1014.22,0,0,0,0,0.021782
2018/02/22 04:28:00.011,n,186,10.08,9.72,10.8,20.2,83.8,1014.22,0,0,0,0,0.02697
2018/02/22 04:29:00.008,n,196,6.48,5.76,8.28,20.2,83.9,1014.22,0,0,0,0,0.02697
2018/02/22 04:30:00.006,n,183,11.16,9.36,12.6,20.2,83.8,1014.22,0,0,0,0,0.026131
2018/02/22 04:31:00.000,n,199,2.88,1.8,3.6,20.2,83.8,1014.22,0,0,0,0,0.02697
2018/02/22 04:32:00.000,n,162,9.36,7.92,12.24,20.2,83.8,1014.22,0,0,0,0,0.018272
2018/02/22 04:33:00.000,n,175,9,7.92,10.8,20.2,83.9,1014.22,0,0,0,0,0.030479
2018/02/22 04:34:00.006,n,180,10.440002,9,13.32,20.2,83.9,1014.22,0,0,0,0,0.035706
2018/02/22 04:35:00.004,n,211,8.28,6.48,9.36,20.2,84,1014.22,0,0,0,0,0.033073
2018/02/22 04:36:00.001,n,149,8.28,7.92,8.64,20.2,84.1,1014.32,0,0,0,0,0.041809
2018/02/22 04:37:00.000,n,180,5.4,4.32,6.12,20.2,84.1,1014.32,0,0,0,0,0.037422
2018/02/22 04:38:00.012,n,174,11.52,10.8,12.24,20.3,84,1014.42,0,0,0,0,0.042648
2018/02/22 04:39:00.010,n,184,11.52,11.16,12.24,20.3,84,1014.42,0,0,0,0,0.033951
2018/02/22 04:40:00.000,n,160,1.8,0.72,4.68,20.2,84,1014.52,0,0,0,0,0.02964
2018/02/22 04:41:00.000,n,174,6.48,6.12,6.84,20.2,84.2,1014.62,0,0,0,0,0.033951
2018/02/22 04:42:00.001,n,116,6.48,3.6,9.72,20.3,84.2,1014.62,0,0,0,0,0.034828
2018/02/22 04:43:00.000,n,180,9.36,8.64,10.08,20.3,84.3,1014.62,0,0,0,0,0.0383
2018/02/22 04:44:00.000,n,141,9.72,8.64,11.88,20.3,84.2,1014.62,0,0,0,0,0.0383
2018/02/22 04:45:00.008,n,183,8.64,7.92,9,20.3,84.2,1014.72,0,0,0,0,0.033951
2018/02/22 04:46:00.006,n,154,6.84,6.48,7.2,20.3,84.3,1014.72,0,0,0,0,0.042648
2018/02/22 04:47:00.003,n,164,11.16,9.72,11.88,20.3,84.2,1014.72,0,0,0,0,0.040054
2018/02/22 04:48:00.001,n,161,11.88,10.8,12.96,20.3,84.3,1014.62,0,0,0,0,0.033951
2018/02/22 04:49:00.000,n,152,8.64,6.84,9.36,20.3,84.4,1014.72,0,0,0,0,0.030479